Starlink 30238

operational
NORAD ID: 57296 Int'l Des: 2023-096 Owner: SPXS Country: US Constellation: starlink
LEOCIRCULAR

About Starlink 30238

Description loading...

Live Position

Loading 3D Globe...

Upcoming Passes

Altitude History

Altitude vs Time

uPlot chart will show altitude changes over time

Two-Line Element Set

1 57296U 23096G 25260.48732453 .00057142 00000-0 25672-2 0 9993
2 57296 42.9982 69.8470 0021134 280.1276 79.7189 15.20159153121755
Epoch: Sep 17, 2025 • Age: 22 hours

Current Status

Altitude 502.9 km
Velocity 7.62 km/s
Sub-Earth Point 7.67°N, 71.94°W
Launch Date Jul 10, 2023
Age 2.1 years
Type internet

Technical Details

Classification Payload
Mass 730.00 kg
Dry Mass 700.00 kg
Total Mass 730.00 kg
Length 0.30 m
Diameter 4.10 m
Span 29.00 m
Shape Box + pan
Manufacturer SPXS
Bus Type Starlink V2M
Phase Status In Orbit
Owner/State SPXS/US

Large Constellations

Loading constellations...